Location: Roland
(31.1349°N, 85.4372°W)
Time: 05:06:15
(UTC+00:00)

Vanguard 2 Rocket - Pass Details

Date: 07 December 2021
Orbit: 554 x 3324 km, 32.9° (Epoch: 16 January)

Event Time Altitude Azimuth Distance (km) Brightness Sun altitude
Rises 02:22:52 0° 283° (WNW) 3,837 10.8 -47.0°
Reaches altitude 10° 02:25:02 10° 282° (WNW) 3,128 10.1 -47.5°
Enters shadow 02:28:32 34° 280° (W) 2,165 9.0 -48.3°
